Time,TemperatureF,DewpointF,PressureIn,WindDirection,WindDirectionDegrees,WindSpeedMPH,WindSpeedGustMPH,Humidity,HourlyPrecipIn,Conditions,Clouds,dailyrainin,SoftwareType,DateUTC
2013-12-31 00:12:00,14.4,8.0,30.20,NNW,344,0.0,4.0,74,0.00,,,0.00,weatherlink.com 1.10,2013-12-31 05:12:00,
2013-12-31 00:27:00,14.2,7.0,30.19,NNE,30,0.0,3.0,74,0.00,,,0.00,weatherlink.com 1.10,2013-12-31 05:27:00,
2013-12-31 00:42:00,14.0,7.0,30.19,NW,323,0.0,6.0,74,0.00,,,0.00,weatherlink.com 1.10,2013-12-31 05:42:00,
2013-12-31 00:58:00,14.0,7.0,30.18,North,10,2.0,4.0,74,0.00,,,0.00,weatherlink.com 1.10,2013-12-31 05:58:00,
2013-12-31 01:12:00,13.9,7.0,30.19,NNW,336,2.0,5.0,74,0.00,,,0.00,weatherlink.com 1.10,2013-12-31 06:12:00,
2013-12-31 01:29:00,13.8,7.0,30.19,NNW,343,3.0,5.0,74,0.00,,,0.00,weatherlink.com 1.10,2013-12-31 06:29:00,
2013-12-31 01:44:00,13.7,7.0,30.20,NW,315,0.0,5.0,74,0.00,,,0.00,weatherlink.com 1.10,2013-12-31 06:44:00,
2013-12-31 01:59:00,13.9,7.0,30.20,North,10,0.0,1.0,75,0.00,,,0.00,weatherlink.com 1.10,2013-12-31 06:59:00,
2013-12-31 02:15:00,14.1,7.0,30.19,North,11,0.0,2.0,74,0.00,,,0.00,weatherlink.com 1.10,2013-12-31 07:15:00,
2013-12-31 02:29:00,14.1,7.0,30.20,North,350,0.0,3.0,74,0.00,,,0.00,weatherlink.com 1.10,2013-12-31 07:29:00,
2013-12-31 02:44:00,14.4,8.0,30.20,NNW,340,0.0,2.0,75,0.00,,,0.00,weatherlink.com 1.10,2013-12-31 07:44:00,
2013-12-31 03:00:00,14.6,8.0,30.20,NNW,340,0.0,2.0,75,0.00,,,0.00,weatherlink.com 1.10,2013-12-31 08:00:00,
2013-12-31 03:15:00,14.7,8.0,30.19,NNW,340,1.0,1.0,74,0.00,,,0.00,weatherlink.com 1.10,2013-12-31 08:15:00,
2013-12-31 03:31:00,14.3,7.0,30.19,NNW,340,0.0,2.0,74,0.00,,,0.00,weatherlink.com 1.10,2013-12-31 08:31:00,
2013-12-31 03:46:00,14.1,7.0,30.19,NNW,336,1.0,2.0,74,0.00,,,0.00,weatherlink.com 1.10,2013-12-31 08:46:00,
2013-12-31 04:02:00,14.0,7.0,30.19,WNW,301,0.0,1.0,75,0.00,,,0.00,weatherlink.com 1.10,2013-12-31 09:02:00,
2013-12-31 04:16:00,14.1,8.0,30.19,NW,317,0.0,2.0,75,0.00,,,0.00,weatherlink.com 1.10,2013-12-31 09:16:00,
2013-12-31 04:31:00,14.1,8.0,30.18,NW,317,0.0,3.0,75,0.00,,,0.00,weatherlink.com 1.10,2013-12-31 09:31:00,
2013-12-31 04:46:00,14.0,7.0,30.18,NW,313,0.0,2.0,75,0.00,,,0.00,weatherlink.com 1.10,2013-12-31 09:46:00,
2013-12-31 05:01:00,13.7,7.0,30.17,NW,313,0.0,0.0,75,0.00,,,0.00,weatherlink.com 1.10,2013-12-31 10:01:00,
2013-12-31 05:17:00,13.2,7.0,30.17,NW,313,0.0,1.0,75,0.00,,,0.00,weatherlink.com 1.10,2013-12-31 10:17:00,
2013-12-31 05:32:00,13.0,7.0,30.17,NW,313,0.0,1.0,76,0.00,,,0.00,weatherlink.com 1.10,2013-12-31 10:32:00,
2013-12-31 05:47:00,13.2,7.0,30.17,NE,40,0.0,3.0,75,0.00,,,0.00,weatherlink.com 1.10,2013-12-31 10:47:00,
2013-12-31 06:02:00,13.1,7.0,30.16,NE,39,0.0,1.0,75,0.00,,,0.00,weatherlink.com 1.10,2013-12-31 11:02:00,
2013-12-31 06:19:00,13.2,7.0,30.18,NE,38,0.0,1.0,76,0.00,,,0.00,weatherlink.com 1.10,2013-12-31 11:19:00,
2013-12-31 06:34:00,13.8,8.0,30.18,NNE,19,0.0,1.0,77,0.00,,,0.00,weatherlink.com 1.10,2013-12-31 11:34:00,
2013-12-31 06:49:00,14.1,8.0,30.17,NNE,19,0.0,1.0,76,0.00,,,0.00,weatherlink.com 1.10,2013-12-31 11:49:00,
2013-12-31 07:04:00,14.0,7.0,30.17,NNE,19,0.0,1.0,75,0.00,,,0.00,weatherlink.com 1.10,2013-12-31 12:04:00,
2013-12-31 07:19:00,13.7,7.0,30.17,NNE,19,0.0,0.0,75,0.00,,,0.00,weatherlink.com 1.10,2013-12-31 12:19:00,
2013-12-31 07:34:00,13.4,7.0,30.17,NNE,19,0.0,0.0,75,0.00,,,0.00,weatherlink.com 1.10,2013-12-31 12:34:00,
2013-12-31 07:50:00,13.2,7.0,30.17,NNE,19,0.0,0.0,77,0.00,,,0.00,weatherlink.com 1.10,2013-12-31 12:50:00,
2013-12-31 08:05:00,13.8,8.0,30.18,WSW,257,0.0,2.0,77,0.00,,,0.00,weatherlink.com 1.10,2013-12-31 13:05:00,
2013-12-31 08:20:00,14.5,9.0,30.18,WSW,246,0.0,2.0,77,0.00,,,0.00,weatherlink.com 1.10,2013-12-31 13:20:00,
2013-12-31 08:35:00,14.8,9.0,30.18,WSW,245,0.0,1.0,76,0.00,,,0.00,weatherlink.com 1.10,2013-12-31 13:35:00,
2013-12-31 08:51:00,15.4,9.0,30.17,WSW,248,0.0,0.0,76,0.00,,,0.00,weatherlink.com 1.10,2013-12-31 13:51:00,
2013-12-31 09:06:00,16.4,9.0,30.17,WSW,248,0.0,1.0,74,0.00,,,0.00,weatherlink.com 1.10,2013-12-31 14:06:00,
2013-12-31 09:21:00,17.4,10.0,30.17,WSW,244,0.0,1.0,71,0.00,,,0.00,weatherlink.com 1.10,2013-12-31 14:21:00,
2013-12-31 09:36:00,18.0,9.0,30.17,WSW,238,0.0,3.0,68,0.00,,,0.00,weatherlink.com 1.10,2013-12-31 14:36:00,
2013-12-31 09:52:00,19.0,10.0,30.16,SW,218,0.0,2.0,68,0.00,,,0.00,weatherlink.com 1.10,2013-12-31 14:52:00,
2013-12-31 10:07:00,21.0,11.0,30.16,SW,222,0.0,3.0,66,0.00,,,0.00,weatherlink.com 1.10,2013-12-31 15:07:00,
2013-12-31 10:22:00,23.3,12.0,30.16,SW,225,0.0,4.0,63,0.00,,,0.00,weatherlink.com 1.10,2013-12-31 15:22:00,
2013-12-31 10:37:00,22.4,10.0,30.16,SSW,202,0.0,4.0,58,0.00,,,0.00,weatherlink.com 1.10,2013-12-31 15:37:00,
2013-12-31 10:54:00,22.7,11.0,30.15,SW,219,1.0,4.0,60,0.00,,,0.00,weatherlink.com 1.10,2013-12-31 15:54:00,
2013-12-31 11:09:00,23.1,10.0,30.14,SSW,205,0.0,5.0,58,0.00,,,0.00,weatherlink.com 1.10,2013-12-31 16:09:00,
2013-12-31 11:24:00,23.1,12.0,30.14,WSW,250,0.0,5.0,62,0.00,,,0.00,weatherlink.com 1.10,2013-12-31 16:24:00,
2013-12-31 11:39:00,23.8,12.0,30.13,SW,234,1.0,7.0,61,0.00,,,0.00,weatherlink.com 1.10,2013-12-31 16:39:00,
2013-12-31 11:55:00,24.5,14.0,30.12,SW,220,0.0,5.0,64,0.00,,,0.00,weatherlink.com 1.10,2013-12-31 16:55:00,
2013-12-31 12:11:00,25.0,14.0,30.11,SW,234,0.0,5.0,62,0.00,,,0.00,weatherlink.com 1.10,2013-12-31 17:11:00,
2013-12-31 12:33:00,26.4,15.0,30.10,SW,215,2.0,4.0,62,0.00,,,0.00,weatherlink.com 1.10,2013-12-31 17:33:00,
2013-12-31 12:40:00,26.3,14.0,30.09,SSW,194,0.0,6.0,61,0.00,,,0.00,weatherlink.com 1.10,2013-12-31 17:40:00,
2013-12-31 12:59:00,26.7,15.0,30.09,WSW,258,0.0,7.0,62,0.00,,,0.00,weatherlink.com 1.10,2013-12-31 17:59:00,
2013-12-31 13:15:00,26.6,15.0,30.09,WNW,290,0.0,3.0,61,0.00,,,0.00,weatherlink.com 1.10,2013-12-31 18:15:00,
2013-12-31 13:27:00,26.5,15.0,30.09,SW,219,1.0,7.0,61,0.00,,,0.00,weatherlink.com 1.10,2013-12-31 18:27:00,
2013-12-31 13:43:00,27.8,16.0,30.09,SW,231,2.0,4.0,62,0.00,,,0.00,weatherlink.com 1.10,2013-12-31 18:43:00,
2013-12-31 13:58:00,26.5,14.0,30.09,SW,217,0.0,8.0,60,0.00,,,0.00,weatherlink.com 1.10,2013-12-31 18:58:00,
2013-12-31 14:17:00,25.7,15.0,30.09,NW,304,0.0,7.0,63,0.00,,,0.00,weatherlink.com 1.10,2013-12-31 19:17:00,
2013-12-31 14:30:00,26.1,15.0,30.09,West,271,3.0,3.0,63,0.00,,,0.00,weatherlink.com 1.10,2013-12-31 19:30:00,
2013-12-31 14:43:00,26.1,15.0,30.10,WNW,301,3.0,7.0,63,0.00,,,0.00,weatherlink.com 1.10,2013-12-31 19:43:00,
2013-12-31 15:03:00,26.4,15.0,30.10,SSW,207,3.0,7.0,63,0.00,,,0.00,weatherlink.com 1.10,2013-12-31 20:03:00,
2013-12-31 15:15:00,27.5,17.0,30.10,SW,215,1.0,5.0,64,0.00,,,0.00,weatherlink.com 1.10,2013-12-31 20:15:00,
2013-12-31 15:30:00,27.0,16.0,30.11,WSW,245,0.0,7.0,63,0.00,,,0.00,weatherlink.com 1.10,2013-12-31 20:30:00,
2013-12-31 16:01:00,26.3,17.0,30.12,SW,215,0.0,8.0,69,0.00,,,0.00,weatherlink.com 1.10,2013-12-31 21:01:00,
2013-12-31 16:22:00,26.2,18.0,30.12,SSW,192,2.0,6.0,70,0.00,,,0.00,weatherlink.com 1.10,2013-12-31 21:22:00,
2013-12-31 16:33:00,26.4,19.0,30.13,SW,218,0.0,5.0,73,0.00,,,0.00,weatherlink.com 1.10,2013-12-31 21:33:00,
2013-12-31 16:54:00,25.4,19.0,30.13,SW,217,0.0,5.0,78,0.00,,,0.00,weatherlink.com 1.10,2013-12-31 21:54:00,
2013-12-31 17:05:00,25.2,19.0,30.13,NW,321,2.0,5.0,78,0.00,,,0.00,weatherlink.com 1.10,2013-12-31 22:05:00,
2013-12-31 17:17:00,25.4,19.0,30.14,South,178,0.0,3.0,78,0.00,,,0.00,weatherlink.com 1.10,2013-12-31 22:17:00,
2013-12-31 17:48:00,26.1,20.0,30.14,West,264,0.0,4.0,77,0.00,,,0.00,weatherlink.com 1.10,2013-12-31 22:48:00,
2013-12-31 18:02:00,25.4,19.0,30.14,WSW,249,0.0,5.0,77,0.00,,,0.00,weatherlink.com 1.10,2013-12-31 23:02:00,
2013-12-31 18:18:00,24.9,19.0,30.15,WNW,292,0.0,5.0,78,0.00,,,0.00,weatherlink.com 1.10,2013-12-31 23:18:00,
2013-12-31 18:52:00,24.5,18.0,30.17,SSW,195,0.0,4.0,77,0.00,,,0.00,weatherlink.com 1.10,2013-12-31 23:52:00,
2013-12-31 19:10:00,24.2,17.0,30.18,West,280,0.0,5.0,75,0.00,,,0.00,weatherlink.com 1.10,2014-01-01 00:10:00,
2013-12-31 19:18:00,24.1,17.0,30.19,West,267,1.0,8.0,73,0.00,,,0.00,weatherlink.com 1.10,2014-01-01 00:18:00,
2013-12-31 19:35:00,23.8,16.0,30.20,WSW,257,0.0,6.0,72,0.00,,,0.00,weatherlink.com 1.10,2014-01-01 00:35:00,
2013-12-31 19:51:00,23.7,15.0,30.21,West,275,1.0,4.0,70,0.00,,,0.00,weatherlink.com 1.10,2014-01-01 00:51:00,
2013-12-31 20:15:00,23.3,14.0,30.21,NW,318,3.0,6.0,68,0.00,,,0.00,weatherlink.com 1.10,2014-01-01 01:15:00,
2013-12-31 20:22:00,23.3,14.0,30.21,WNW,291,0.0,6.0,67,0.00,,,0.00,weatherlink.com 1.10,2014-01-01 01:22:00,
2013-12-31 20:37:00,23.1,14.0,30.23,WSW,237,0.0,4.0,67,0.00,,,0.00,weatherlink.com 1.10,2014-01-01 01:37:00,
2013-12-31 20:52:00,23.3,12.0,30.23,WNW,298,2.0,5.0,63,0.00,,,0.00,weatherlink.com 1.10,2014-01-01 01:52:00,
2013-12-31 21:06:00,23.1,11.0,30.23,SW,227,0.0,11.0,61,0.00,,,0.00,weatherlink.com 1.10,2014-01-01 02:06:00,
2013-12-31 21:25:00,22.7,10.0,30.24,WNW,284,0.0,9.0,58,0.00,,,0.00,weatherlink.com 1.10,2014-01-01 02:25:00,
2013-12-31 21:45:00,22.3,10.0,30.25,WNW,286,1.0,4.0,59,0.00,,,0.00,weatherlink.com 1.10,2014-01-01 02:45:00,
2013-12-31 21:57:00,22.0,10.0,30.25,WSW,241,0.0,7.0,59,0.00,,,0.00,weatherlink.com 1.10,2014-01-01 02:57:00,
2013-12-31 22:15:00,21.9,9.0,30.26,NNE,32,3.0,9.0,58,0.00,,,0.00,weatherlink.com 1.10,2014-01-01 03:15:00,
2013-12-31 22:23:00,21.9,9.0,30.26,SSW,209,3.0,6.0,57,0.00,,,0.00,weatherlink.com 1.10,2014-01-01 03:23:00,
2013-12-31 22:42:00,21.5,8.0,30.26,WNW,293,0.0,6.0,57,0.00,,,0.00,weatherlink.com 1.10,2014-01-01 03:42:00,
2013-12-31 22:56:00,21.3,8.0,30.27,West,275,1.0,5.0,57,0.00,,,0.00,weatherlink.com 1.10,2014-01-01 03:56:00,
2013-12-31 23:09:00,21.2,8.0,30.27,NW,306,3.0,6.0,57,0.00,,,0.00,weatherlink.com 1.10,2014-01-01 04:09:00,
2013-12-31 23:27:00,20.9,8.0,30.27,NNW,346,0.0,5.0,58,0.00,,,0.00,weatherlink.com 1.10,2014-01-01 04:27:00,
2013-12-31 23:39:00,20.5,8.0,30.28,WSW,249,0.0,5.0,59,0.00,,,0.00,weatherlink.com 1.10,2014-01-01 04:39:00,